Regional Weather Roundup
Issued by NWS

Home | Current Version | Previous Version | Text Only | Print | Product List | Glossary Off
Versions: 1 2 3 4 5 6 7 8 9 10 11 12 13 14 15 16 17 18 19 20 21 22 23 24 25 26 27 28 29 30 31 32 33 34 35 36 37 38 39 40 41 42 43 44 45 46 47 48 49 50

000
ASUS43 KIND 171600
RWRIN

WEATHER ROUNDUP FOR INDIANA
NATIONAL WEATHER SERVICE INDIANAPOLIS IN
1200 PM EDT THU AUG 17 2017

NOTE: "FAIR" INDICATES FEW OR NO CLOUDS BELOW 12,000 FEET WITH NO
SIGNIFICANT WEATHER AND/OR OBSTRUCTIONS TO VISIBILITY.

* - STATION DOES NOT REPORT WEATHER SUCH AS PRECIPITATION OR FOG.

+ - STATION NOT QUALITY CONTROLLED BY THE NATIONAL WEATHER SERVICE.
    USE DATA WITH CAUTION...ESPECIALLY DEWPOINT AND RELATIVE
    HUMIDITY OBSERVATIONS.

INZ001>003-010>013-019-020-171700-
NORTHWEST INDIANA

CITY           SKY/WX    TMP DP  RH WIND       PRES   REMARKS
GARY /AIRPORT/ CLOUDY    77  70  78 SW15      29.78F
MICHIGAN CITY+ PTSUNNY   79  70  73 S14       29.78F
MONTICELLO +   CLOUDY    79  69  71 SW13      29.82S
RENSSELAER +   CLOUDY    79  66  65 SW13      29.81F
VALPARAISO     CLOUDY    79  71  76 SW13      29.79F

$$

LMZ046-743>745-171700-
SOUTHERN LAKE MICHIGAN

STATION/POSITION TIME  TEMP    WIND        PRES    WAVE
                       AIR SEA DIR/SP/G            HT
                 (UTC) (F)     (DEG/KT/KT) (MB)    (FT)
BURNS HARBOR     1540   76     200/ 15/ 18 1008.5F
MICHIGAN CITY    1530   74     200/ 17/ 18   N/A
5NW MICH CITY    1550   74 74  220/ 12/ 17   N/A     2

$$

INZ004-005-014>016-021>024-171700-
NORTH CENTRAL INDIANA

CITY           SKY/WX    TMP DP  RH WIND       PRES   REMARKS
GOSHEN         CLOUDY    77  70  79 SW10      29.81S
SOUTH BEND     PTSUNNY   79  71  76 SW14      29.79F
WARSAW +       CLOUDY    77  73  88 SW3       29.82S

$$

INZ006>009-017-018-025>027-171700-
NORTHEAST INDIANA

CITY           SKY/WX    TMP DP  RH WIND       PRES   REMARKS
FORT WAYNE     LGT RAIN  78  74  87 SW13      29.84S FOG
KENDALLVILLE + HVY RAIN  72  72 100 SW7       29.86R VSB 1

$$

INZ028-029-035-036-043>045-051>053-171700-
WEST CENTRAL INDIANA

CITY           SKY/WX    TMP DP  RH WIND       PRES   REMARKS
LAFAYETTE      PTSUNNY   76  70  82 SW13      29.83S
TERRE HAUTE    CLOUDY    77  67  71 SW9       29.89F

$$

INZ030>032-037>040-046>048-054>057-064-065-171700-
CENTRAL INDIANA

CITY           SKY/WX    TMP DP  RH WIND       PRES   REMARKS
ANDERSON       CLOUDY    81  73  78 MISG      29.87F
COLUMBUS       RAIN      81  73  78 SW21G30   29.89S
GREENWOOD *+   CLOUDY    78  74  85 SW9G17    29.88F
INDIANAPOLIS   LGT RAIN  75  72  90 W21G41    29.87R
-EAGLE CREEK   LGT RAIN  75  70  84 W10G23    29.87R
KOKOMO +       PTSUNNY   77  73  87 SW15      29.85S
MT COMFORT *+  CLOUDY    75  73  94 SW15G26   29.88R
SHELBYVILLE    LGT RAIN  75  71  87 SW12      29.87F

$$

INZ033-034-041-042-049-050-058-059-171700-
EAST CENTRAL INDIANA

CITY           SKY/WX    TMP DP  RH WIND       PRES   REMARKS
MUNCIE         CLOUDY    84  73  69 S14G23    29.84F
RICHMOND +     PTSUNNY   81  73  78 SW17      29.92F

$$

INZ060-061-067>069-081>083-085>088-171700-
SOUTHWEST INDIANA

CITY           SKY/WX    TMP DP  RH WIND       PRES   REMARKS
EVANSVILLE     CLOUDY    84  73  69 SW14      29.93S
HUNTINGBURG +  CLOUDY    84  76  76 SW18G25   29.93S

$$

INZ062-063-066-070>080-084-089>092-171700-
SOUTH CENTRAL AND SOUTHEAST INDIANA

CITY           SKY/WX    TMP DP  RH WIND       PRES   REMARKS
BLOOMINGTON    CLOUDY    79  74  84 W8        29.90S
MADISON *+     PTSUNNY   82  73  74 S8        29.95F
SEYMOUR +      PTSUNNY   86  73  66 SW14      29.90F

$$





USA.gov is the U.S. government's official web portal to all federal, state and local government web resources and services.